White Plains, CT

5:33 AM EDT on April 26, 2017 (GMT -0400)
Westchester County

Weather History for KHPN - December, 2015

Change the Weather History Date:

Tuesday, December 1, 2015

  Actual Average Record
Temperature  
Mean Temperature 42 °F -  
Max Temperature 46 °F 45 °F 66 °F (2001)
Min Temperature 39 °F 31 °F 10 °F (1976)
Degree Days  
Heating Degree Days 22    
Moisture  
Dew Point 41 °F    
Average Humidity 88    
Maximum Humidity 97    
Minimum Humidity 73    
Precipitation  
Precipitation 0.27 in - - ()
Sea Level Pressure  
Sea Level Pressure 30.17 in    
Wind  
Wind Speed 7 mph (East)    
Max Wind Speed 13 mph    
Max Gust Speed 21 mph    
Visibility 6 miles    
Events Rain    
Averages and records for this station are not official NWS values.
T = Trace of Precipitation, MM = Missing Value Source: NWS Daily Summary

Daily Weather History Graph

Daily Weather History Graph

Search for Another Location

Airport or City:

Trip Planner

Search our weather history database for the weather conditions in past years. The results will help you decide how hot, cold, wet, or windy it might be!

Date:

Astronomy

Dec. 01, 2015 Rise Set
Actual Time 7:00 AM EST 4:27 PM EST
Civil Twilight 6:29 AM EST 4:57 PM EST
Nautical Twilight 5:55 AM EST 5:31 PM EST
Astronomical Twilight 5:22 AM EST 6:05 PM EST
Moon 10:28 PM EST (12/1) 11:24 AM EST (12/1)
Length of Visible Light 10h 28m
Length of Day
9h 26m
Waning Gibbous, 66% of the Moon is Illuminated
Dec 1
Waning Gibbous
Dec 3
Last Quarter
Dec 11
New
Dec 18
First Quarter
Dec 25
Full

Hourly Weather History & Observations

Time (EST) Temp. Windchill Dew Point Humidity Pressure Visibility Wind Dir Wind Speed Gust Speed Precip Events Conditions
12:56 AM 41.0 °F 37.1 °F 33.1 °F 73% 30.32 in 10.0 mi ENE 5.8 mph - N/A   Overcast
1:56 AM 41.0 °F 36.4 °F 34.0 °F 76% 30.32 in 10.0 mi ENE 6.9 mph - 0.00 in Rain Light Rain
2:56 AM 41.0 °F 38.0 °F 35.1 °F 79% 30.30 in 10.0 mi East 4.6 mph - 0.00 in Rain Light Rain
3:56 AM 41.0 °F 38.0 °F 37.9 °F 89% 30.30 in 4.0 mi East 4.6 mph - 0.01 in Rain Light Rain
4:56 AM 39.9 °F 36.7 °F 37.0 °F 89% 30.29 in 5.0 mi East 4.6 mph - 0.01 in Rain Light Rain
5:56 AM 41.0 °F 35.8 °F 37.0 °F 86% 30.27 in 8.0 mi ENE 8.1 mph - 0.01 in Rain Light Rain
6:56 AM 41.0 °F 37.1 °F 37.9 °F 89% 30.27 in 8.0 mi East 5.8 mph - 0.01 in   Drizzle
7:56 AM 42.1 °F 36.6 °F 39.0 °F 89% 30.25 in 10.0 mi East 9.2 mph 16.1 mph 0.00 in Rain Light Rain
8:56 AM 44.1 °F 39.5 °F 39.9 °F 85% 30.26 in 8.0 mi East 8.1 mph - 0.00 in   Drizzle
9:10 AM 44.6 °F 39.7 °F 41.0 °F 87% 30.24 in 2.5 mi East 9.2 mph - 0.00 in   Drizzle
9:56 AM 44.1 °F 39.0 °F 42.1 °F 93% 30.24 in 9.0 mi East 9.2 mph - 0.00 in   Overcast
10:56 AM 46.0 °F 41.9 °F 43.0 °F 89% 30.23 in 10.0 mi East 8.1 mph - 0.00 in   Overcast
11:56 AM 46.9 °F - 43.0 °F 86% 30.21 in 10.0 mi ESE 9.2 mph - 0.03 in Rain Light Rain
12:56 PM 46.9 °F - 42.1 °F 83% 30.18 in 10.0 mi East 12.7 mph 20.7 mph 0.00 in   Overcast
1:56 PM 46.9 °F - 42.1 °F 83% 30.16 in 2.5 mi ESE 12.7 mph - N/A   Overcast
2:26 PM 46.4 °F 41.9 °F 42.8 °F 87% 30.14 in 2.5 mi East 9.2 mph - N/A   Overcast
2:56 PM 46.0 °F 41.9 °F 43.0 °F 89% 30.14 in 2.0 mi East 8.1 mph - 0.02 in Rain Light Rain
3:56 PM 46.0 °F 41.4 °F 44.1 °F 93% 30.12 in 2.5 mi East 9.2 mph - 0.02 in Rain Light Rain
4:08 PM 44.6 °F 38.8 °F 42.8 °F 93% 30.10 in 2.5 mi East 11.5 mph - 0.02 in Rain Light Rain
4:56 PM 45.0 °F 39.3 °F 43.0 °F 93% 30.09 in 2.5 mi East 11.5 mph 17.3 mph 0.05 in Rain Light Rain
5:56 PM 45.0 °F 39.3 °F 43.0 °F 93% 30.07 in 3.0 mi East 11.5 mph 19.6 mph 0.01 in Rain Light Rain
6:56 PM 46.0 °F 41.4 °F 44.1 °F 93% 30.06 in 2.5 mi East 9.2 mph 18.4 mph 0.02 in Rain Light Rain
7:56 PM 46.0 °F 43.9 °F 44.1 °F 93% 30.06 in 1.5 mi NE 4.6 mph - 0.05 in Rain Light Rain
8:56 PM 45.0 °F 42.6 °F 43.0 °F 93% 30.05 in 1.5 mi North 4.6 mph - 0.02 in Rain Light Rain
9:56 PM 45.0 °F 43.5 °F 43.0 °F 93% 30.03 in 3.0 mi NNE 3.5 mph - 0.01 in Rain Light Rain
10:56 PM 43.0 °F 41.3 °F 42.1 °F 97% 30.00 in 5.0 mi NNE 3.5 mph - 0.00 in Rain Light Rain
11:56 PM 43.0 °F 41.3 °F 41.0 °F 93% 30.01 in 5.0 mi NW 3.5 mph - 0.00 in   Overcast